Flag for Canada Weather past 2 weeks in Edmonton, Alberta, Canada

Now
30 °F

Overcast.


Feels Like: 20 °F
Forecast: 32 / 46 °F
Wind: 13 mph from East

Location: Edmonton Municipal


UV Index: 0 (Low)

Visibility: 7 mi


Pressure: 29.94 "Hg

Humidity: 64%

Dew point: 19 °F

Location of EdmontonLocation

Historic Weather in Edmonton

°F

Edmonton temperature yesterday

Maximum temperature yesterday: 34 °F (at 4:00 PM)
Minimum temperature yesterday: 23 °F (at 6:00 AM)
Average temperature yesterday: 29 °F

Past Weeks' High & Low Weather Summary

 TemperatureHumidityPressure
High66 °F (Apr 8, 4:00 PM)69% (Apr 17, 5:53 AM)30.50 "Hg (Apr 17, 5:53 AM)
Low12 °F (Apr 3, 7:00 AM)23% (Apr 14, 6:00 PM)29.54 "Hg (Apr 8, 7:00 PM)
Average36 °F46%29.95 "Hg
* Reported Apr 2 5:00 PM — Apr 17 5:00 PM, Edmonton, Weather by CustomWeather, © 2014

Note: Actual official high and low records may vary slightly from our data, if they occured in-between our weather recording intervals... More about our weather records

Advertising

Historic Weather Conditions — Data for Previous 24 hours

 ConditionsComfort  
Time TempWeatherWind HumidityBarometerVisibility
5:00 PM
Apr 17
30 °FLight snow. Overcast.13 mph64%29.94 "Hg4 mi
4:55 PM30 °FLight snow. Overcast.13 mph64%29.85 "Hg3 mi
4:00 PM30 °FLight snow. Low clouds.9 mph64%29.95 "Hg2 mi
3:00 PM30 °FLight snow. Overcast.12 mph64%29.95 "Hg2 mi
2:00 PM30 °FOvercast.12 mph64%29.95 "Hg4 mi
1:59 PM30 °FLight snow. Overcast.9 mph64%29.86 "Hg3 mi
1:00 PM30 °FLight snow. Overcast.9 mph64%29.96 "Hg2 mi
12:00 PM30 °FOvercast.7 mph59%29.96 "Hg9 mi
11:00 AM28 °FOvercast.9 mph64%29.96 "Hg9 mi
10:00 AM28 °FOvercast.9 mph64%29.96 "Hg9 mi
9:00 AM28 °FOvercast.8 mph64%29.98 "Hg4 mi
8:00 AM27 °FOvercast.9 mph69%29.98 "Hg3 mi
7:00 AM28 °FOvercast.10 mph64%29.98 "Hg4 mi
6:00 AM27 °FMostly cloudy.13 mph69%29.98 "Hg3 mi
5:53 AM27 °FMostly cloudy.10 mph69%29.89 "Hg3 mi
5:04 AM28 °FLight snow. Mostly cloudy.10 mph64%29.90 "Hg2 mi
4:52 AM28 °FLight snow. Mostly cloudy.13 mph64%29.90 "Hg2 mi
4:00 AM30 °FMostly cloudy.14 mph59%30.00 "Hg9 mi
3:47 AM30 °FMostly cloudy.15 mph59%29.91 "Hg9 mi
3:00 AM30 °FMostly cloudy.15 mph59%30.01 "Hg9 mi
2:00 AM30 °FMostly cloudy.18 mph59%30.04 "Hg9 mi
1:00 AM30 °FOvercast.15 mph59%30.06 "Hg9 mi
12:00 AM28 °FIce fog.17 mph64%30.07 "Hg6 mi
11:00 PM
Apr 16
30 °FOvercast.15 mph55%30.10 "Hg9 mi
10:00 PM30 °FOvercast.15 mph55%30.11 "Hg9 mi
9:00 PM30 °FOvercast.14 mph55%30.12 "Hg9 mi
8:04 PM32 °FMostly cloudy.13 mph51%30.03 "Hg9 mi
7:00 PM32 °FOvercast.15 mph51%30.14 "Hg8 mi
6:46 PM32 °FLight fog.17 mph51%30.05 "Hg7 mi
6:00 PM32 °FLight fog.15 mph51%30.15 "Hg6 mi
Weather by CustomWeather, © 2014

See weather overview